Location: Bun Machan
(52.1403°N, 7.3744°W)
Time: 19:14:02
(UTC+00:00)

Meteor 1-4 Rocket - Pass Details

Date: 14 July 2020
Orbit: 449 x 503 km, 81.2° (Epoch: 11 August)

Event Time Altitude Azimuth Distance (km) Brightness Sun altitude
Rises 01:48:36 0° 339° (NNW) 2,596 7.1 -14.5°
Reaches altitude 10° 01:50:54 10° 329° (NNW) 1,699 5.9 -14.4°
Maximum altitude 01:54:11 30° 267° (W) 894 3.7 -14.3°
Enters shadow 01:55:34 23° 228° (SW) 1,073 3.8 -14.2°
